Regional Weather Roundup
Issued by NWS New Orleans/Baton Rouge, LA

Home | Current Version | Previous Version | Graphics & Text | Print | Product List | Glossary Off
Versions: 1 2 3 4 5 6 7 8 9 10 11 12 13 14 15 16 17 18 19 20 21 22 23 24 25 26 27 28 29 30 31 32 33 34 35 36 37 38 39 40 41 42 43 44 45 46 47 48 49 50

948
ASUS44 KLIX 190410
RWRLIX
NEW ORLEANS REGIONAL WEATHER ROUNDUP
NATIONAL WEATHER SERVICE NEW ORLEANS LA
1100 PM CDT FRI APR 18 2014

NOTE: "FAIR" INDICATES FEW OR NO CLOUDS BELOW 12,000 FEET WITH NO
      SIGNIFICANT WEATHER AND/OR OBSTRUCTIONS TO VISIBILITY.
      SKY/WX - SKY CONDITION AND SIGNIFICANT WEATHER.
      TMP - AIR TEMPERATURE.     DP    - DEWPOINT TEMPERATURE.
      RH  - RELATIVE HUMIDITY.   PRES  - PRESSURE.
      HI  - HEAT INDEX.          WCI   - WIND CHILL INDEX.

*  THESE STATIONS ARE NOT NWS OR FAA STATIONS AND ARE NOT UNDER
   NWS QUALITY CONTROL.

LAZ038-040-048-061>063-065>067-069-190500-
SOUTHEAST LOUISIANA

CITY           SKY/WX    TMP DP  RH WIND       PRES   REMARKS
N.O. AUDUBON     N/A     64  56  76 MISG        N/A
N.O. INTL ARPT PTCLDY    63  56  78 NE9       30.14R
N.O. LAKEFRONT CLEAR     63  56  78 NE13      30.15R
N.O. DOWNTOWN*   N/A     63  52  67 N7        30.15R
SLIDELL        CLEAR     59  54  83 NE6       30.12R
BATON ROUGE    CLEAR     61  57  87 CALM      30.16R
BOOTHVILLE     PTCLDY    62  55  77 N12G20    30.11R
BELLE CHASSE   PTCLDY    61  54  77 N6        30.13R
BOGALUSA*        N/A     58  53  85 N5        30.16R
GALLIANO*      CLEAR     62  56  83 NW6       30.14R
NEW ROADS*     CLOUDY    62  60  94 NE5       30.15S
GONZALES*        N/A     59  58  97 CALM      30.16R
HAMMOND*       CLEAR     59  54  82 N3        30.17R
HOUMA*           N/A     60  55  83 CALM      30.15R
PORT FOURCHON* CLEAR     64  57  77 N10       30.15R

$$

MSZ070-080>082-190500-
SOUTHERN MISSISSIPPI

CITY           SKY/WX    TMP DP  RH WIND       PRES   REMARKS
MCCOMB         CLEAR     59  53  80 CALM      30.16R
GULFPORT       PTCLDY    61  52  72 N10       30.11R
BILOXI         CLOUDY    59  54  82 N9        30.11R
PASCAGOULA     CLOUDY    59  54  83 N7        30.10S

$$

COASTAL OBSERVATIONS
LAKE AND NEARSHORE STATIONS

STATION/POSITION TIME  TEMP    WIND        PRES    WAVE
                       AIR SEA DIR/SP/G            HT/PER
                 (UTC) (F)     (DEG/KT/KT) (MB)    (FT/S)
PASCAGOULA       0400   59      20/ 11/ 15 1018.2
WAVELAND YACHT   0400   60 67   20/ 12/ 14 1019.0
GRAND ISLE       0400   64 68   30/ 16/ 19 1020.4
SOUTHWEST PASS   0400   63 58   10/ 13/ 15 1019.6
NEW CANAL        0400   63 65   40/ 12/ 12 1021.1
SHELL BEACH      0400   63 63   20/ 18/ 19 1019.7

OFFSHORE STATIONS

STATION/POSITION TIME  TEMP    WIND        PRES    WAVE
                       AIR SEA DIR/SP/G            HT/PER
                 (UTC) (F)     (DEG/KT/KT) (MB)    (FT/S)
64 S DAUPHIN ISL 0256   63 71   10/ 25/ 29 1018.0

$$




USA.gov is the U.S. government's official web portal to all federal, state and local government web resources and services.